This is the latest recevied weather packets stored in our database for station/object WX6HNX-6. If no packets are shown the sender has not sent any weather packets the latest 1 day(s).
| Time | Temp. | Humidity | Pressure | Rain* | Wind** | Luminosity | Snow |
|---|---|---|---|---|---|---|---|
| 1778096855 | 22.78° C | 51% | 1019 hPa | 0 mm | 1.34 m/s, 64° | - | - |
| 1778096556 | 23.33° C | 52% | 1019.1 hPa | 0 mm | 1.79 m/s, 42° | - | - |
| 1778096255 | 22.78° C | 52% | 1019.2 hPa | 0 mm | 0 m/s | - | - |
| 1778095955 | 22.78° C | 52% | 1019.2 hPa | 0 mm | 1.34 m/s, 38° | - | - |
| 1778095656 | 22.78° C | 51% | 1019.2 hPa | 0 mm | 0.89 m/s, 294° | - | - |
| 1778095356 | 22.22° C | 54% | 1019.4 hPa | 0 mm | 0 m/s | - | - |
| 1778095055 | 22.22° C | 52% | 1019.5 hPa | 0 mm | 1.34 m/s, 13° | - | - |
| 1778094755 | 22.22° C | 54% | 1019.5 hPa | 0 mm | 1.79 m/s, 17° | - | - |
| 1778094455 | 22.22° C | 53% | 1019.5 hPa | 0 mm | 1.34 m/s, 349° | - | - |
| 1778094155 | 21.67° C | 55% | 1019.6 hPa | 0 mm | 0 m/s | - | - |
| 1778093856 | 21.67° C | 55% | 1019.6 hPa | 0 mm | 1.34 m/s, 61° | - | - |
| 1778093555 | 21.67° C | 58% | 1019.7 hPa | 0 mm | 0.45 m/s, 193° | - | - |
| 1778093256 | 21.11° C | 57% | 1019.7 hPa | 0 mm | 0.45 m/s, 103° | - | - |
| 1778092956 | 21.67° C | 56% | 1019.8 hPa | 0 mm | 1.34 m/s, 35° | - | - |
| 1778092655 | 21.11° C | 57% | 1019.8 hPa | 0 mm | 0.89 m/s, 52° | - | - |
| 1778092355 | 21.11° C | 58% | 1019.8 hPa | 0 mm | 1.79 m/s, 43° | - | - |
| 1778092055 | 21.11° C | 58% | 1019.8 hPa | 0 mm | 2.68 m/s, 50° | - | - |
| 1778091755 | 21.11° C | 59% | 1019.9 hPa | 0 mm | 0.89 m/s, 107° | - | - |
| 1778091456 | 21.11° C | 58% | 1019.9 hPa | 0 mm | 0.45 m/s, 58° | - | - |
| 1778091155 | 21.11° C | 57% | 1020 hPa | 0 mm | 1.34 m/s, 54° | - | - |
| 1778090856 | 20.56° C | 61% | 1020 hPa | 0 mm | 0 m/s | - | - |
| 1778090555 | 20.56° C | 60% | 1020 hPa | 0 mm | 1.34 m/s, 71° | - | - |
| 1778090255 | 20.56° C | 62% | 1020.1 hPa | 0 mm | 0.89 m/s, 62° | - | - |
| 1778089955 | 20° C | 62% | 1020.1 hPa | 0 mm | 0 m/s | - | - |
| 1778089656 | 20° C | 62% | 1020 hPa | 0 mm | 0 m/s | - | - |
* Rain latest hour (hover to see other rain measurements)
** Current wind speed in m/s (hover to see current wind gust speed)